Location: Cornospital
(48.0620°N, 3.3837°W)
Time: 19:58:36
(UTC+00:00)

Cosmos 2333 - Pass Details

Date: 17 June 2021
Orbit: 832 x 864 km, 70.9° (Epoch: 02 August)

Event Time Altitude Azimuth Distance (km) Brightness Sun altitude
Exits shadow 22:25:08 - 208° (SSW) 3,127 6.8 -14.4°
Reaches altitude 10° 22:26:48 10° 209° (SSW) 2,492 6.3 -14.5°
Maximum altitude 22:32:33 84° 297° (WNW) 868 4.3 -15.0°
Drops below altitude 10° 22:38:18 10° 27° (NNE) 2,489 7.2 -15.3°
Sets 22:40:45 0° 28° (NNE) 3,424 8.0 -15.5°
